SALSAT (46495 NORAD) Tracking and Keplerian Element Data
This shows tracking and keplerian element data for the satellite.
Feedback or suggestion? Click here.
Element | Value |
Catalog | 46495 |
Name | SALSAT |
Epoch Orbit | 1806 |
Epoch Day | 26.89301114 |
Epoch Year | 2021 |
RAAN | 325.346 |
Inclination | 97.682 |
Eccentricity | 0.0016991 |
Argument of Perigee | 187.1047 |
Mean Anonmoly | 172.9941 |
Mean Motion | 15.03338379 |
Decay Rate | 8.53E-06 |
L1 | 1 46495U 20068K 21026.89301114 .00000853 00000-0 67248-4 0 9999 |
L2 | 2 46495 97.6820 325.3460 0016991 187.1047 172.9941 15.03338379 18069 |
Live tracking and technical data element details for SALSAT (NORAD 46495). SALSAT can be tracked NOW for your location showing map with azimuth and elevation plus other details from your city location.
Track the satellite on the map from your city or location and see movement details for azimuth, elevation, latitude, longitude, range, height, and movement on the map or in text.
IsCatalogInMostPopularTable: catalog: 46495, numindb: 43
Update: records affected: 1
GetName: 46495 SALSAT
Hit Count: updated at: Thu, 28 Jan 2021 11:52:04 GMT